カタログに戻る

STARLINK-2399

運用中通信VLEO
NORAD 47816·PAYLOAD·🇺🇸 United States

打ち上げ Mar 11, 2021 から Cape Canaveral Space Force Station

Loading…

次のパス (今後24時間)

TLE

最新Source: CelesTrak SupGP

元期: Sep 15, 2026, 00:29 UTC

1 47816C 21018AF  26258.02062500  .00053782  00000+0  17294-2 0  2583
2 47816  53.1565  97.0853 0001192  81.9734 123.8444 15.31677313    14

AllMySatでSTARLINK-2399をリアルタイム追跡

Download on the App Store